Location: Brahman Valley
(40.6513°N, 111.8855°W)
Time: 20:26:09
(UTC+00:00)

Vanguard 2 - Pass Details

Date: 16 May 2021
Orbit: 552 x 2937 km, 32.9° (Epoch: 14 June)

Event Time Altitude Azimuth Distance (km) Brightness Sun altitude
Rises 14:57:38 0° 266° (W) 4,784 11.0 30.0°
Reaches altitude 10° 15:00:23 10° 262° (W) 4,071 10.8 30.5°
Maximum altitude 15:11:50 60° 187° (S) 2,653 10.7 32.7°
Drops below altitude 10° 15:28:33 10° 113° (ESE) 5,729 13.2 35.8°
Sets 15:33:16 0° 111° (ESE) 6,787 13.3 36.7°
